Location: Amsterdam
(30.7274°N, 84.4357°W)
Time: 05:11:20
(UTC+00:00)

Tiros 1 despin weight - Pass Details

Date: 23 February 2026
Orbit: 556 x 593 km, 48.2° (Epoch: 13 March)

Event Time Altitude Azimuth Distance (km) Brightness Sun altitude
Rises 18:42:05 0° 264° (W) 2,757 ? 47.8°
Reaches altitude 10° 18:44:47 10° 280° (W) 1,855 ? 47.6°
Maximum altitude 18:48:04 21° 331° (NNW) 1,272 ? 47.4°
Drops below altitude 10° 18:51:20 10° 22° (NNE) 1,844 ? 47.1°
Sets 18:54:00 0° 38° (NE) 2,736 ? 46.9°
